Wind_Speed
13 15 16 15 13 12 10 9 8 7 6 5 4 3 3 4 5 5 6 6 6 6 7 8 9 10 11 11 10 11 11 10 10 11 10 10 10 10 10 11 11 11 11 10 10 11 12 12 12 12 11 11 10 10 9 8 10 11 12 12 12 12 12
12 14 15 14 11 10 9 9 8 7 5 3 3 4 5 5 6 6 7 7 7 8 9 10 10 11 11 12 12 12 13 12 12 12 11 11 11 11 11 12 12 11 11 11 11 12 12 12 12 12 11 11 11 10 9 9 10 12 12 12 12 13 13
10 12 13 11 9 8 8 9 8 7 5 3 4 5 5 6 7 8 9 9 8 8 9 10 11 12 13 12 12 12 13 14 14 13 13 12 12 12 12 12 12 12 11 11 12 12 12 11 11 11 11 10 10 10 11 11 12 13 13 13 13 14 14
8 9 10 9 8 7 8 8 8 7 5 4 5 5 5 6 7 7 8 8 8 7 8 8 9 11 12 12 12 12 12 13 14 14 14 13 12 12 12 12 12 11 11 11 12 13 12 11 11 11 11 10 10 10 11 12 13 13 13 13 13 14 14
6 6 8 8 7 6 6 7 8 7 6 6 5 4 4 5 6 6 6 6 6 6 6 5 6 7 8 9 10 10 11 11 13 14 14 14 13 13 13 12 12 12 12 13 13 13 13 11 10 10 11 10 9 10 11 11 12 13 14 13 13 14 14
8 8 9 9 8 7 6 7 8 8 8 8 6 4 4 4 5 6 6 6 5 5 5 5 4 4 5 6 7 8 8 10 11 12 14 14 14 14 14 14 14 14 13 13 13 13 11 9 9 10 11 10 9 10 11 12 12 13 13 13 13 13 13
13 13 12 11 10 9 7 7 8 9 9 8 6 5 4 5 5 6 6 5 5 6 6 5 5 4 4 5 5 5 6 7 9 11 13 14 15 16 16 16 16 15 14 14 13 13 11 9 10 11 11 10 9 9 11 11 12 12 13 13 12 12 12
14 14 13 12 11 10 8 7 8 9 9 9 8 6 5 5 5 6 5 5 5 6 6 6 5 5 5 6 6 6 6 6 8 10 11 13 15 16 17 17 17 16 16 15 14 13 10 10 11 11 9 7 7 8 9 10 10 11 11 12 12 12 11
12 13 12 11 10 10 9 8 8 9 10 10 10 8 6 6 6 6 6 6 5 5 6 6 5 5 6 6 7 7 7 7 8 9 10 12 14 15 15 15 15 15 14 13 12 11 10 9 9 8 6 6 7 9 9 9 9 9 10 10 11 11 11
11 13 13 11 10 10 10 10 10 10 11 12 12 10 8 7 7 7 6 6 5 5 6 5 6 6 6 7 7 8 8 8 8 9 10 11 12 12 12 12 12 11 11 10 10 9 9 8 8 7 6 7 8 8 8 8 9 9 9 10 10 10 10
9 12 14 13 11 10 10 10 12 12 12 13 13 11 10 9 8 8 7 7 6 6 6 6 6 7 7 7 7 8 8 9 9 9 10 10 10 10 10 10 10 9 9 9 8 8 7 7 7 7 7 7 7 8 8 8 9 9 10 10 10 10 10
9 10 12 14 14 14 13 12 12 12 12 13 13 12 11 10 9 9 9 8 7 7 7 7 7 7 7 8 8 8 8 8 9 10 10 10 10 9 9 9 8 7 7 7 7 7 7 7 6 6 7 7 8 9 9 9 10 10 11 11 11 11 11
9 9 11 14 16 17 17 15 13 13 12 13 14 14 13 11 11 11 10 9 8 7 8 8 8 8 8 8 9 9 9 9 9 9 10 10 9 9 9 8 7 7 7 7 7 7 7 6 6 6 7 8 9 10 11 11 11 11 12 12 12 12 13
16 15 14 14 16 18 18 17 15 13 13 14 15 16 14 13 13 12 12 11 9 9 9 8 9 9 9 9 10 10 10 9 9 9 10 10 10 9 9 9 8 9 9 9 9 8 7 7 8 8 9 9 11 12 12 13 13 13 13 13 13 14 15
21 20 17 15 15 16 16 15 14 14 15 17 18 17 16 15 14 14 14 13 11 10 10 10 10 10 10 10 10 10 10 10 10 10 10 11 11 11 10 10 10 10 11 11 11 10 9 10 11 11 11 11 12 13 14 14 15 14 14 14 14 15 16
19 19 19 18 17 15 15 16 16 18 20 21 21 19 18 16 15 15 16 15 13 12 11 11 11 11 11 10 10 9 9 9 10 10 10 11 11 11 10 10 10 10 10 10 10 11 11 13 14 14 13 13 13 14 16 16 16 15 15 16 17 17 17
16 14 15 16 16 16 16 18 20 22 22 22 22 21 19 18 17 17 18 17 16 14 12 12 12 12 12 11 10 10 9 9 9 10 10 11 11 11 10 9 9 9 9 9 10 11 12 14 15 16 15 15 15 15 17 17 17 17 17 18 18 19 18
15 14 13 13 15 16 17 18 21 22 22 22 22 22 21 20 19 18 19 19 17 15 14 13 13 13 13 12 10 9 8 8 9 9 10 10 11 10 9 9 9 9 9 10 11 12 13 14 16 17 17 18 18 17 17 18 18 19 20 21 21 21 21
16 17 16 16 17 18 18 19 20 20 21 22 23 23 22 21 20 19 19 18 17 16 15 14 14 14 13 11 9 9 9 9 10 11 11 12 12 12 11 11 11 11 12 13 13 13 14 15 16 17 19 20 21 21 21 20 20 20 21 22 23 23 23
13 14 14 16 18 19 19 18 18 19 20 22 23 22 22 21 21 20 19 19 17 16 15 15 14 13 13 12 12 12 13 13 14 15 15 15 15 15 15 15 15 16 16 17 17 17 17 17 17 17 19 20 22 24 24 24 23 23 23 23 24 24 24
12 15 16 16 16 16 16 16 17 18 21 22 22 22 22 22 22 22 22 21 20 18 16 14 14 13 14 15 16 17 17 17 18 19 20 20 20 19 18 18 19 20 20 21 22 21 21 20 20 19 20 21 23 25 26 27 26 26 26 26 25 25 24
13 16 18 17 15 14 14 15 17 20 21 22 22 23 23 23 24 24 24 24 23 21 20 18 18 18 18 19 20 21 21 21 22 23 24 24 23 22 21 21 22 23 23 24 24 25 24 24 24 23 22 22 23 25 26 27 27 28 28 29 28 27 26
16 18 21 19 16 14 15 16 19 21 22 22 22 22 23 23 23 24 24 24 24 23 23 22 22 22 22 23 24 24 25 26 26 27 27 27 27 25 24 24 24 24 25 26 27 27 27 27 27 26 25 25 25 27 27 27 27 28 28 29 29 29 29
19 19 19 18 17 18 18 18 19 20 21 22 22 23 23 22 22 22 22 22 23 23 24 24 24 24 24 25 25 26 27 27 28 29 29 29 29 28 27 27 26 25 25 27 28 28 28 29 29 29 28 27 28 29 30 29 29 29 30 30 30 30 31
20 19 18 19 20 20 21 20 19 20 21 22 23 24 24 24 23 22 22 22 23 24 25 25 25 26 26 26 27 27 28 28 29 28 27 26 27 29 30 29 29 28 27 27 28 28 29 29 30 31 31 30 30 31 32 32 32 32 33 34 34 34 35
22 23 22 22 22 22 22 21 20 21 22 23 24 25 25 26 26 25 25 25 25 26 26 27 27 27 28 28 28 29 30 30 31 30 29 29 31 32 32 32 31 31 30 30 30 31 31 30 30 31 32 32 32 33 35 36 36 36 36 36 36 36 37
25 25 25 25 25 26 27 26 24 25 26 27 27 28 28 28 29 28 27 27 27 27 28 29 28 29 30 30 30 31 32 33 34 34 34 34 35 34 33 34 35 35 34 35 36 36 36 35 34 34 34 35 35 35 37 39 40 40 39 38 36 35 35
29 29 29 29 30 30 31 30 29 29 30 30 31 31 32 32 32 31 31 30 30 30 30 31 31 32 33 33 34 34 35 36 37 38 38 38 37 37 37 38 40 40 38 38 39 40 40 38 38 39 40 39 38 37 38 40 41 42 41 39 37 35 34
33 33 33 34 34 34 35 35 34 33 34 35 35 36 37 37 37 36 35 34 33 33 33 34 34 35 35 36 37 38 40 42 42 41 41 41 41 41 40 41 42 43 43 42 42 42 41 39 40 42 44 44 41 39 38 40 41 42 42 41 40 38 38
37 37 37 37 37 37 38 38 38 37 38 39 40 41 41 41 41 41 39 38 38 37 37 37 37 36 37 38 40 43 46 47 47 45 44 44 44 43 43 43 44 45 45 45 44 43 42 43 45 46 46 46 44 41 40 41 42 43 43 43 41 40 40
41 41 40 40 39 40 40 41 42 43 43 44 44 45 45 45 44 44 43 43 42 40 39 39 38 38 39 42 44 46 48 48 49 48 48 47 47 46 45 45 46 46 47 47 48 47 47 46 46 46 46 45 43 43 44 43 42 42 42 41 40 39 40
45 44 43 43 42 42 43 43 44 45 46 46 46 46 47 48 47 46 45 45 43 41 39 40 41 42 44 47 48 48 49 49 49 49 49 49 49 49 48 48 48 48 48 48 49 49 48 47 46 45 45 43 42 42 44 42 41 40 40 39 39 40 42
46 46 46 46 46 47 47 47 48 48 48 47 47 47 48 49 51 50 49 48 47 45 44 45 47 48 50 51 52 52 51 51 51 51 51 51 52 52 52 52 51 50 50 51 51 50 48 47 45 43 41 40 41 42 41 39 38 37 37 38 39 41 43
45 45 46 48 49 49 50 50 49 49 48 48 50 50 50 51 53 54 53 53 53 53 53 52 53 54 55 55 55 54 53 53 52 53 53 54 55 55 54 53 52 52 52 52 51 50 48 44 42 42 41 41 44 45 43 41 38 36 36 37 40 42 44
43 44 46 48 48 48 49 50 50 49 49 49 51 52 53 54 55 56 57 57 58 59 60 59 58 58 58 58 56 55 54 54 55 55 56 57 56 55 53 53 53 53 52 49 48 47 45 43 42 43 43 43 44 44 42 41 40 39 40 41 43 45 45
48 50 51 53 53 52 53 53 54 54 55 55 56 57 58 59 60 60 61 62 62 63 64 63 61 60 59 59 58 57 57 57 57 58 57 57 55 53 53 52 50 48 46 44 43 42 41 42 43 44 44 44 44 42 41 42 42 42 43 44 45 45 43
53 54 56 58 58 58 59 58 59 59 60 60 61 62 62 63 63 63 64 64 65 65 65 65 64 63 61 61 60 60 59 58 58 58 57 56 54 53 50 46 44 45 45 43 43 44 45 47 48 48 47 47 46 45 44 45 44 44 44 44 43 43 42
Wind_Direction
261 262 261 261 264 268 271 271 269 268 264 266 279 310 340 338 331 323 315 310 304 298 293 288 282 277 273 274 283 291 291 294 291 286 284 280 273 266 259 258 261 262 260 260 260 258 257 258 260 265 267 266 264 258 253 256 263 265 264 265 268 269 269
263 259 256 256 256 260 264 265 263 259 256 271 301 319 325 318 309 300 293 290 288 287 286 284 283 281 277 274 276 281 285 287 287 284 282 278 273 267 262 259 259 258 256 255 256 255 253 253 258 262 262 263 260 254 255 263 267 269 272 275 276 275 274
271 267 260 258 259 260 262 262 259 256 259 279 300 306 307 304 299 290 282 277 273 271 271 273 276 277 277 275 274 276 279 280 280 279 276 273 270 265 262 261 259 257 252 249 250 249 250 254 259 259 254 254 253 250 256 264 267 269 271 274 274 274 274
285 277 265 262 263 260 261 261 260 262 269 282 287 286 296 309 311 304 294 286 279 272 266 265 267 270 273 275 276 276 276 275 274 273 271 268 265 262 262 260 256 252 247 243 243 245 250 255 256 252 247 247 249 250 257 264 268 270 271 270 270 270 270
289 269 256 256 256 252 256 264 271 276 277 279 277 275 294 320 328 332 327 313 296 283 275 271 268 267 268 271 275 279 279 276 272 269 267 264 258 256 256 253 248 245 244 243 243 246 250 251 249 247 246 247 251 256 262 267 270 272 272 271 269 269 268
271 265 254 245 243 243 251 268 278 280 281 282 273 265 288 314 330 342 344 330 308 289 280 276 273 271 271 269 270 274 275 273 270 265 262 256 252 250 248 246 244 242 241 240 241 242 242 243 241 240 243 249 256 262 266 268 269 270 270 269 269 270 271
260 265 256 240 236 239 245 265 279 281 284 284 268 257 279 305 323 336 338 327 308 291 282 278 275 274 277 278 276 274 270 266 264 260 256 253 249 247 245 243 243 241 237 235 236 237 233 232 234 236 239 247 257 264 266 269 272 273 274 273 273 274 276
258 259 254 246 242 242 247 258 274 283 285 280 264 256 272 291 308 321 323 319 305 291 286 281 278 273 273 280 283 283 277 265 260 255 250 247 243 241 240 239 239 237 234 231 233 235 229 226 233 238 238 241 253 258 258 261 265 268 272 276 276 277 277
260 253 249 249 250 253 260 262 268 279 282 276 265 260 270 281 295 307 308 307 302 295 291 287 285 280 275 275 277 280 278 269 261 253 243 238 236 236 235 234 235 235 233 232 232 232 227 226 233 238 234 233 242 248 247 249 253 257 263 268 272 274 276
268 251 242 244 253 262 268 267 267 274 280 279 270 265 271 278 287 295 297 299 298 295 296 296 295 292 285 278 275 275 274 270 265 257 247 240 234 229 227 227 229 230 230 230 232 231 228 228 230 231 232 235 245 250 250 253 255 259 262 263 266 271 274
279 260 248 248 256 265 271 269 268 272 278 279 273 268 271 277 286 291 292 294 295 294 298 302 301 297 290 281 275 272 269 269 268 264 259 252 244 233 225 222 223 224 227 230 233 234 232 232 232 233 238 240 247 253 256 261 264 264 264 264 266 269 272
288 276 261 257 260 265 271 273 270 269 273 274 271 268 271 277 284 287 288 290 292 295 300 303 301 295 287 278 271 266 263 263 265 265 264 262 258 250 240 233 231 229 233 239 243 245 245 247 248 248 248 246 247 251 253 256 259 261 261 261 263 265 267
291 294 277 262 260 264 268 269 269 265 262 263 264 266 269 276 283 286 287 286 287 291 294 296 295 288 279 271 263 259 257 257 259 261 265 266 265 264 261 259 256 253 256 262 267 270 272 274 270 261 255 253 253 254 254 252 252 254 257 258 261 263 265
283 291 287 270 264 267 265 262 264 262 257 257 259 262 267 273 279 283 284 284 283 286 288 288 287 280 273 266 258 254 251 252 254 258 262 265 266 270 274 278 282 285 287 289 291 290 286 281 275 267 260 259 259 258 259 258 254 253 255 257 261 265 266
274 279 280 273 269 268 259 253 256 261 262 262 259 261 265 268 274 279 281 281 280 281 283 283 280 274 268 263 257 253 251 251 255 258 261 265 269 274 279 285 290 295 298 301 301 296 288 283 280 275 268 265 265 264 263 263 263 262 263 263 264 265 268
271 271 268 266 265 263 256 253 258 264 267 265 260 259 263 265 269 275 277 277 275 276 278 278 277 272 265 261 258 256 257 258 260 263 267 271 275 279 283 287 291 296 301 303 300 293 287 285 283 279 273 269 269 271 270 270 271 271 271 271 270 269 270
269 265 259 256 254 252 254 257 262 267 267 263 257 255 258 260 263 267 270 271 270 269 271 275 275 272 266 264 264 264 266 268 271 274 278 279 281 283 287 291 297 304 309 308 304 295 288 286 286 284 282 279 274 274 276 276 276 276 275 275 274 273 272
263 259 253 246 242 243 248 252 257 261 261 257 251 249 251 254 258 262 265 267 267 267 269 273 274 273 270 268 269 273 280 287 292 292 291 288 286 286 290 296 303 311 312 309 307 298 289 289 289 288 289 288 283 278 275 275 276 277 277 277 277 276 275
259 253 249 248 248 249 249 248 249 253 253 250 247 246 248 251 254 258 262 264 264 266 269 272 272 271 268 266 271 280 291 302 306 304 300 298 297 299 302 306 309 309 305 301 302 299 293 290 288 283 282 283 283 282 278 274 272 271 272 273 274 275 275
256 256 260 261 259 257 254 250 248 249 250 248 246 247 251 253 255 257 259 260 261 264 268 269 267 264 262 266 276 285 293 301 303 302 300 299 301 305 309 310 307 305 303 301 302 301 297 293 289 282 275 272 275 280 281 279 277 274 271 270 269 271 272
265 267 268 265 260 258 256 252 248 247 246 245 246 249 252 255 255 256 257 257 257 258 260 260 258 256 259 266 274 281 287 293 295 295 294 296 298 300 303 304 300 299 300 300 300 300 298 295 292 289 282 273 269 273 277 277 277 277 277 275 272 270 269
269 263 263 264 261 258 253 249 245 243 242 243 245 248 250 252 254 255 256 256 256 257 257 257 259 260 263 267 271 277 282 284 286 287 288 290 293 295 296 296 295 296 296 295 294 295 296 295 293 292 290 284 277 274 275 275 275 274 275 277 277 275 273
270 264 265 265 259 250 246 244 239 237 239 241 242 243 246 248 250 252 253 255 256 259 261 263 265 268 270 272 276 280 282 282 282 283 283 283 284 286 289 290 291 292 291 289 289 290 290 291 292 291 289 289 286 283 280 279 278 276 274 276 278 279 277
269 262 260 260 257 252 248 244 238 234 235 237 238 240 242 243 245 247 248 251 254 258 261 264 268 271 273 276 280 283 284 283 281 281 282 280 280 282 285 286 287 285 282 281 282 284 284 285 287 288 288 288 287 285 283 281 280 279 279 280 281 282 281
271 265 261 261 260 253 243 239 238 236 235 236 237 240 242 243 244 244 246 250 254 257 261 264 269 272 274 276 280 282 284 284 283 283 282 282 284 286 286 286 287 286 283 282 282 283 282 281 280 283 285 285 285 284 284 283 281 280 279 280 281 282 282
275 272 269 266 260 250 245 246 246 245 246 246 245 245 246 246 247 247 249 252 255 258 261 264 268 271 273 276 277 279 281 283 283 284 284 284 286 288 286 284 284 285 285 284 284 284 283 282 280 279 280 281 282 281 282 282 282 280 278 277 279 280 280
268 268 267 266 263 260 262 265 262 257 256 256 253 251 250 250 250 250 251 253 255 258 260 263 266 270 272 274 276 277 279 280 282 284 285 284 285 285 284 282 283 284 284 283 284 284 284 284 281 279 279 280 280 279 278 278 278 278 278 277 278 279 277
266 266 266 265 264 264 265 265 263 260 259 259 257 255 254 253 252 252 252 254 255 258 261 264 267 271 274 276 277 278 279 280 282 283 284 284 284 283 282 283 284 284 282 280 281 283 284 283 281 281 283 284 284 280 277 275 275 275 276 276 277 276 273
273 273 272 271 270 268 267 265 263 261 260 260 260 260 258 256 255 255 255 256 257 259 261 264 267 270 273 276 278 281 282 283 283 283 283 282 282 281 281 281 282 281 280 279 280 281 281 280 280 282 285 286 286 282 276 273 272 272 273 274 274 273 273
273 274 273 272 270 269 269 267 266 265 263 262 262 262 260 257 256 257 257 257 258 259 260 261 263 265 268 272 277 280 282 282 283 282 282 281 281 280 279 279 279 279 279 280 279 278 277 277 278 282 284 284 285 283 278 274 272 271 272 272 273 273 273
272 272 271 269 268 268 268 268 268 269 268 267 265 263 261 258 256 256 258 258 257 257 258 259 259 261 266 271 276 279 281 281 281 281 281 281 280 280 280 280 279 278 278 278 277 277 277 276 277 279 279 280 279 277 275 274 272 271 270 271 272 271 270
272 271 270 269 268 267 267 267 268 268 269 269 267 263 261 260 258 258 259 258 255 255 258 262 264 266 270 274 278 280 281 280 280 281 281 281 281 282 282 281 281 281 280 278 276 276 277 277 276 275 275 275 274 272 271 272 272 270 269 268 268 269 270
270 270 270 270 270 270 269 269 268 267 267 268 267 264 262 262 261 261 262 261 258 257 262 268 271 273 275 276 278 279 279 279 279 280 280 281 282 283 283 283 283 283 282 280 278 277 276 275 274 272 271 271 270 269 270 271 271 271 269 268 268 270 273
266 267 267 268 268 268 269 268 267 266 264 264 265 264 264 263 263 263 264 264 262 262 265 271 274 276 276 277 277 277 278 278 278 278 280 281 281 282 283 283 283 282 282 281 278 276 275 273 270 268 268 268 267 269 271 272 271 270 269 269 271 274 276
263 264 265 265 265 264 264 263 262 260 259 259 260 262 264 265 265 265 266 267 266 266 269 273 275 275 276 276 277 277 278 277 277 278 278 279 280 281 281 281 282 282 281 278 274 274 275 274 270 268 266 265 266 269 271 270 269 269 269 270 273 275 277
264 264 265 267 267 267 267 266 266 264 263 262 263 265 266 267 268 268 269 270 270 271 274 275 276 275 275 276 276 277 277 277 277 277 277 278 279 278 279 281 282 280 275 270 269 270 271 269 267 266 264 263 265 268 269 268 269 270 271 272 273 275 278
268 268 268 269 269 270 270 270 271 271 270 269 269 270 271 272 272 272 273 273 274 275 276 277 277 277 277 277 277 277 276 276 275 275 276 276 276 277 279 279 274 268 264 263 263 263 262 262 263 263 261 261 263 265 266 267 269 270 271 271 273 275 279
Height
5788 5790 5791 5791 5791 5792 5792 5792 5792 5791 5791 5792 5792 5791 5791 5790 5790 5790 5791 5792 5793 5793 5794 5794 5794 5794 5794 5794 5794 5793 5793 5794 5794 5794 5795 5796 5796 5797 5797 5798 5798 5798 5797 5797 5798 5798 5798 5798 5799 5799 5799 5800 5800 5800 5801 5802 5802 5801 5801 5801 5801 5801 5801
5787 5788 5789 5789 5789 5790 5790 5791 5791 5791 5791 5790 5790 5789 5789 5789 5789 5790 5790 5790 5791 5792 5792 5792 5792 5792 5792 5792 5792 5791 5791 5792 5792 5793 5793 5793 5794 5795 5795 5795 5796 5795 5796 5796 5797 5797 5797 5797 5798 5798 5798 5798 5798 5799 5800 5800 5800 5799 5798 5798 5799 5799 5799
5786 5787 5787 5788 5788 5788 5789 5790 5790 5790 5789 5789 5788 5788 5788 5788 5788 5788 5788 5788 5788 5789 5789 5790 5790 5790 5790 5790 5790 5790 5789 5789 5790 5791 5791 5791 5792 5792 5793 5793 5793 5793 5794 5794 5795 5795 5796 5796 5797 5797 5797 5797 5797 5798 5798 5798 5798 5797 5797 5797 5797 5797 5797
5784 5785 5786 5786 5787 5787 5788 5788 5789 5789 5789 5788 5787 5787 5787 5787 5786 5786 5786 5786 5786 5786 5787 5787 5787 5788 5787 5787 5787 5787 5788 5788 5788 5789 5789 5789 5790 5790 5790 5790 5790 5791 5792 5792 5792 5793 5794 5795 5795 5795 5795 5795 5796 5796 5796 5796 5796 5795 5795 5795 5795 5795 5795
5782 5783 5784 5785 5785 5785 5786 5787 5787 5787 5788 5787 5786 5786 5786 5785 5785 5784 5784 5784 5784 5784 5784 5784 5785 5785 5785 5785 5785 5785 5786 5786 5786 5787 5787 5787 5787 5787 5788 5788 5788 5789 5789 5790 5790 5791 5792 5792 5793 5793 5793 5793 5794 5794 5794 5794 5794 5793 5793 5793 5793 5793 5793
5781 5781 5782 5782 5782 5783 5783 5784 5785 5785 5785 5785 5785 5784 5784 5784 5783 5782 5782 5782 5782 5782 5782 5782 5782 5782 5783 5783 5783 5783 5784 5784 5784 5785 5785 5785 5785 5785 5786 5786 5786 5787 5788 5788 5789 5789 5789 5790 5790 5790 5791 5791 5791 5791 5791 5791 5791 5791 5791 5791 5791 5791 5791
5779 5779 5779 5779 5779 5780 5780 5781 5782 5782 5783 5783 5783 5783 5782 5782 5781 5780 5780 5780 5780 5780 5779 5779 5779 5779 5780 5780 5781 5781 5782 5782 5783 5783 5784 5784 5784 5784 5784 5784 5784 5785 5785 5786 5786 5787 5787 5788 5788 5788 5788 5789 5789 5789 5789 5789 5789 5788 5788 5788 5789 5789 5789
5776 5777 5776 5776 5776 5777 5778 5779 5779 5780 5781 5781 5781 5781 5780 5780 5779 5778 5778 5778 5778 5778 5777 5777 5777 5777 5777 5777 5778 5778 5779 5780 5781 5782 5782 5782 5782 5782 5782 5782 5782 5782 5782 5783 5784 5784 5785 5785 5785 5786 5787 5787 5787 5787 5787 5787 5787 5787 5787 5786 5786 5787 5787
5774 5774 5774 5774 5775 5775 5776 5776 5777 5778 5779 5779 5779 5779 5779 5778 5777 5776 5776 5776 5776 5776 5775 5775 5775 5775 5775 5775 5775 5776 5777 5778 5779 5780 5780 5781 5780 5780 5780 5780 5780 5780 5780 5780 5781 5782 5782 5783 5783 5784 5784 5785 5785 5784 5784 5785 5785 5785 5785 5785 5785 5785 5785
5772 5772 5772 5773 5773 5773 5774 5774 5775 5776 5776 5777 5778 5778 5777 5776 5775 5774 5774 5774 5774 5773 5773 5773 5773 5773 5773 5773 5773 5774 5775 5776 5777 5778 5778 5778 5778 5778 5778 5778 5778 5778 5778 5778 5779 5780 5780 5781 5781 5781 5782 5782 5782 5782 5782 5782 5782 5783 5783 5783 5783 5783 5783
5770 5770 5771 5771 5772 5772 5772 5772 5773 5774 5774 5775 5776 5776 5775 5774 5774 5773 5772 5772 5772 5771 5771 5770 5770 5770 5771 5771 5771 5772 5773 5773 5774 5775 5776 5776 5777 5777 5776 5776 5776 5777 5777 5777 5777 5778 5778 5778 5779 5779 5780 5780 5780 5780 5780 5780 5780 5781 5781 5781 5781 5781 5781
5768 5768 5769 5770 5770 5770 5770 5770 5771 5772 5772 5773 5774 5774 5774 5773 5772 5771 5771 5770 5770 5769 5769 5769 5768 5769 5769 5769 5769 5770 5771 5771 5772 5773 5773 5774 5775 5775 5775 5775 5775 5775 5775 5775 5775 5776 5776 5776 5777 5777 5778 5778 5778 5778 5778 5779 5779 5779 5779 5779 5779 5779 5779
5766 5767 5767 5767 5767 5768 5768 5768 5769 5769 5770 5771 5772 5772 5772 5771 5770 5770 5769 5769 5768 5768 5767 5767 5767 5767 5767 5767 5768 5768 5768 5769 5770 5771 5771 5772 5772 5773 5773 5773 5773 5773 5773 5773 5773 5773 5774 5774 5775 5775 5775 5775 5775 5775 5776 5776 5777 5777 5776 5777 5777 5777 5776
5764 5764 5765 5765 5765 5765 5765 5766 5766 5767 5768 5768 5769 5770 5769 5769 5769 5768 5768 5767 5766 5766 5766 5766 5766 5766 5766 5766 5766 5766 5766 5767 5767 5768 5769 5769 5769 5770 5770 5770 5770 5770 5771 5771 5771 5771 5772 5772 5772 5772 5772 5772 5772 5773 5773 5773 5774 5774 5774 5774 5775 5774 5774
5761 5762 5762 5763 5763 5763 5763 5763 5764 5765 5765 5766 5767 5767 5767 5767 5767 5766 5766 5765 5765 5765 5764 5764 5764 5764 5765 5765 5765 5765 5765 5765 5765 5766 5766 5766 5767 5767 5767 5767 5767 5768 5768 5768 5769 5769 5769 5769 5769 5770 5771 5771 5771 5771 5771 5771 5771 5771 5771 5772 5772 5772 5772
5757 5757 5758 5759 5760 5760 5760 5761 5761 5762 5763 5763 5764 5765 5765 5765 5764 5764 5764 5764 5763 5763 5763 5763 5763 5763 5763 5763 5763 5764 5763 5763 5764 5764 5764 5764 5764 5765 5765 5765 5765 5765 5766 5766 5767 5767 5767 5767 5767 5768 5768 5769 5769 5769 5768 5769 5769 5769 5770 5769 5769 5770 5770
5753 5753 5753 5754 5756 5757 5758 5758 5758 5759 5760 5761 5762 5762 5763 5763 5762 5762 5762 5762 5762 5762 5762 5762 5762 5762 5762 5762 5762 5762 5762 5763 5762 5762 5762 5762 5762 5762 5762 5762 5762 5763 5764 5764 5765 5765 5765 5765 5765 5765 5766 5767 5767 5767 5767 5767 5767 5767 5768 5768 5767 5767 5768
5749 5749 5750 5750 5752 5753 5754 5755 5755 5756 5757 5758 5758 5759 5760 5760 5760 5760 5761 5761 5761 5761 5761 5761 5761 5761 5761 5761 5761 5761 5762 5762 5761 5761 5761 5761 5761 5760 5760 5760 5760 5761 5761 5762 5762 5762 5762 5763 5763 5762 5763 5763 5764 5765 5765 5765 5765 5765 5765 5765 5765 5765 5765
5745 5745 5747 5748 5749 5750 5751 5752 5752 5753 5754 5755 5756 5756 5757 5757 5758 5759 5759 5759 5760 5760 5759 5759 5759 5760 5760 5760 5760 5760 5760 5760 5760 5759 5759 5759 5759 5759 5758 5758 5758 5758 5758 5758 5759 5759 5760 5760 5761 5761 5761 5760 5760 5761 5762 5763 5764 5764 5763 5763 5763 5763 5763
5743 5744 5746 5746 5747 5747 5748 5749 5750 5751 5752 5753 5753 5754 5755 5755 5756 5757 5757 5757 5758 5758 5758 5758 5758 5758 5758 5758 5758 5758 5758 5758 5757 5758 5758 5758 5758 5757 5757 5757 5756 5756 5756 5756 5756 5756 5757 5757 5758 5759 5759 5758 5758 5757 5757 5758 5759 5760 5760 5760 5760 5760 5760
5742 5744 5745 5744 5745 5745 5746 5747 5748 5749 5750 5751 5751 5752 5753 5753 5754 5754 5755 5755 5755 5755 5755 5755 5755 5756 5756 5756 5756 5755 5755 5755 5756 5756 5756 5756 5756 5755 5755 5754 5754 5754 5754 5754 5753 5753 5754 5754 5755 5755 5756 5756 5756 5755 5755 5754 5755 5755 5755 5755 5756 5757 5757
5741 5742 5743 5742 5742 5743 5743 5744 5746 5747 5747 5748 5749 5749 5750 5751 5751 5752 5753 5753 5753 5753 5753 5753 5753 5753 5754 5754 5753 5753 5753 5753 5754 5754 5754 5754 5753 5753 5753 5752 5752 5751 5752 5751 5751 5751 5751 5751 5751 5751 5752 5753 5752 5752 5752 5752 5751 5751 5751 5751 5751 5752 5753
5738 5740 5740 5739 5740 5741 5742 5743 5743 5744 5744 5745 5746 5746 5747 5748 5748 5749 5750 5750 5751 5750 5750 5751 5751 5751 5752 5752 5752 5751 5751 5751 5751 5751 5751 5751 5751 5751 5751 5750 5750 5749 5749 5748 5748 5748 5748 5748 5747 5747 5748 5748 5748 5748 5748 5748 5748 5748 5747 5747 5747 5747 5748
5735 5737 5737 5737 5738 5739 5739 5741 5741 5741 5741 5742 5742 5743 5743 5744 5745 5745 5746 5747 5747 5747 5747 5747 5748 5748 5749 5749 5749 5748 5748 5747 5747 5747 5747 5747 5747 5748 5748 5748 5748 5747 5746 5746 5745 5745 5745 5745 5745 5744 5744 5744 5744 5744 5744 5744 5744 5744 5743 5743 5743 5744 5743
5732 5733 5734 5735 5735 5736 5737 5738 5738 5738 5739 5739 5739 5739 5739 5740 5741 5742 5742 5743 5743 5744 5744 5744 5744 5744 5745 5745 5745 5745 5744 5744 5743 5743 5743 5744 5744 5744 5744 5744 5744 5743 5743 5743 5742 5742 5742 5742 5742 5741 5741 5741 5741 5740 5739 5739 5740 5740 5739 5739 5738 5739 5738
5730 5730 5731 5731 5731 5732 5734 5735 5735 5735 5735 5735 5736 5736 5735 5736 5736 5737 5738 5738 5739 5739 5740 5740 5740 5740 5740 5741 5741 5741 5741 5740 5740 5740 5741 5741 5740 5739 5740 5740 5740 5739 5739 5739 5739 5738 5738 5738 5738 5738 5738 5738 5738 5737 5736 5735 5735 5735 5735 5734 5733 5733 5733
5725 5725 5726 5727 5728 5729 5730 5731 5731 5731 5731 5731 5731 5731 5731 5731 5731 5732 5733 5734 5734 5735 5735 5735 5735 5736 5736 5736 5737 5737 5737 5736 5736 5737 5737 5736 5735 5735 5735 5735 5735 5735 5735 5735 5734 5734 5734 5734 5734 5733 5733 5733 5733 5733 5732 5731 5731 5730 5729 5729 5728 5728 5728
5719 5720 5720 5722 5723 5724 5724 5725 5725 5726 5726 5727 5727 5727 5727 5726 5726 5727 5728 5728 5728 5729 5729 5729 5730 5730 5731 5732 5732 5733 5733 5732 5732 5733 5732 5731 5731 5730 5730 5730 5730 5729 5730 5730 5729 5728 5729 5729 5728 5728 5727 5727 5728 5727 5726 5726 5725 5725 5724 5724 5723 5723 5723
5715 5715 5716 5716 5717 5718 5718 5718 5719 5720 5720 5721 5721 5722 5722 5721 5721 5721 5722 5722 5722 5723 5723 5724 5724 5725 5726 5726 5727 5728 5727 5727 5727 5727 5727 5726 5726 5725 5725 5725 5725 5724 5723 5724 5724 5723 5723 5723 5722 5722 5722 5721 5721 5721 5720 5720 5719 5719 5718 5718 5717 5717 5717
5710 5711 5711 5712 5712 5712 5712 5713 5713 5714 5714 5715 5715 5715 5715 5715 5715 5716 5716 5716 5716 5717 5717 5718 5719 5720 5720 5721 5722 5722 5721 5721 5720 5721 5722 5721 5721 5720 5720 5720 5719 5719 5718 5717 5717 5717 5718 5717 5716 5716 5716 5715 5715 5714 5713 5713 5713 5713 5712 5712 5712 5712 5712
5705 5705 5706 5706 5706 5706 5707 5707 5707 5708 5708 5708 5709 5709 5709 5710 5710 5710 5710 5710 5711 5711 5711 5711 5712 5713 5714 5714 5715 5715 5715 5714 5714 5714 5714 5715 5715 5715 5714 5713 5713 5712 5712 5711 5710 5710 5711 5711 5710 5710 5710 5710 5709 5707 5706 5706 5707 5706 5706 5706 5706 5706 5706
5698 5699 5699 5700 5700 5700 5700 5700 5700 5701 5701 5702 5702 5702 5702 5703 5703 5704 5704 5704 5705 5705 5704 5704 5704 5705 5706 5707 5708 5709 5708 5708 5708 5707 5707 5707 5707 5708 5707 5707 5706 5705 5705 5704 5702 5703 5704 5704 5704 5704 5704 5704 5703 5701 5700 5700 5700 5700 5700 5700 5700 5700 5700
5693 5693 5693 5693 5693 5694 5694 5693 5693 5694 5694 5694 5694 5695 5695 5696 5696 5696 5697 5697 5698 5698 5698 5698 5697 5697 5698 5699 5700 5701 5702 5702 5702 5701 5700 5700 5700 5699 5699 5698 5699 5698 5697 5696 5695 5695 5696 5696 5696 5697 5697 5698 5696 5694 5694 5695 5694 5694 5695 5695 5694 5694 5694
5687 5688 5688 5688 5688 5688 5687 5687 5687 5687 5687 5687 5687 5687 5688 5688 5688 5688 5688 5688 5689 5690 5690 5691 5690 5690 5690 5691 5692 5692 5694 5695 5695 5694 5694 5693 5692 5692 5691 5690 5690 5690 5689 5688 5688 5687 5687 5688 5688 5689 5690 5691 5689 5688 5688 5689 5689 5689 5689 5689 5688 5688 5687
5681 5682 5682 5682 5682 5682 5681 5681 5681 5680 5680 5680 5680 5680 5680 5680 5680 5680 5680 5679 5680 5680 5681 5682 5683 5683 5682 5683 5683 5684 5685 5686 5686 5686 5686 5685 5685 5685 5684 5682 5682 5681 5681 5681 5680 5679 5680 5680 5681 5681 5682 5683 5681 5681 5682 5683 5683 5683 5682 5682 5682 5681 5681
5674 5675 5675 5675 5675 5675 5674 5674 5673 5673 5672 5673 5673 5673 5673 5672 5671 5671 5671 5671 5671 5672 5672 5673 5674 5675 5675 5675 5675 5675 5676 5677 5677 5677 5678 5678 5677 5677 5676 5675 5675 5674 5673 5673 5673 5673 5673 5673 5673 5674 5675 5675 5675 5675 5675 5676 5676 5676 5676 5675 5675 5674 5674
5666 5666 5667 5667 5666 5666 5666 5666 5665 5665 5664 5664 5664 5664 5664 5662 5661 5661 5661 5661 5662 5663 5664 5663 5664 5665 5666 5666 5666 5666 5667 5667 5668 5669 5670 5669 5669 5668 5668 5668 5668 5665 5665 5666 5666 5666 5667 5666 5666 5667 5668 5668 5668 5668 5669 5669 5669 5669 5669 5669 5669 5669 5669